sat.trackr.live / text

‹ back to catalog

STARLINK-11690 [DTC]

NORAD 64242 · 2025-119K

PAYLOAD ACTIVE UNKNOWN

§ Identity

Operator
Country
US
Launch date
2025-06-03
Launch site
AFETR
Launch vehicle
Mass (kg)
RCS (m²)

Purposes: comms

External: N2YO · Heavens-Above · Gunter

§ Orbital elements

Epoch: 2026-05-24T21:54:32.686848Z

Period
91.66 min
Inclination
42.9980°
Eccentricity
0.0002885
Mean motion
15.70989221 rev/d
Perigee alt
354.1 km
Apogee alt
358.0 km
Semi-major
6,734.2 km
B*
1.6629e-3
RAAN
109.5750°
Arg perigee
282.2409°
Mean anomaly
77.8135°
Rev number
5,723

§ Raw data

STARLINK-11690 [DTC]1 64242U 25119K   26144.91287832  .00220057  00000+0  16629-2 0  99942 64242  42.9980 109.5750 0002885 282.2409  77.8135 15.70989221 57231

JSON: /api/v1/satellites/64242 · /tle

For live sub-satellite position, see the globe view (requires WebGL).

§ Visibility from observer

Set your observer location to see the next 7 days of passes ≥ 10°. The values pass through the URL so the page stays shareable.

No JS? Fill the form by hand. The geolocation button needs JavaScript.